N1OF Weather Reports


Display with metric or nautical units.
time (UTC)temp
F
wind
direction
speed
MPH
gust
MPH
rain 1hr
in
rain 24hr
in
rain mn
in
humidity
%
barometer
mb
20260506001309 48 311 0.0 1.0 0.00 0.65 0.65 96 1009.2
20260506000806 48 333 1.0 2.0 0.07 0.65 0.65 96 1009.2
20260506000304 48 321 0.0 1.0 0.07 0.65 0.65 96 1009.1
20260505235800 49 348 0.0 0.0 0.05 0.64 0.64 96 1009.3
20260505235258 49 358 0.0 0.0 0.12 0.64 0.64 96 1009.1
20260505234755 49 308 0.0 0.0 0.05 0.62 0.62 96 1009.3
20260505234252 49 324 0.0 0.0 0.12 0.62 0.62 96 1009.1
20260505233749 49 336 2.0 3.0 0.07 0.61 0.61 96 1009.2
20260505233247 49 22 0.0 0.0 0.05 0.60 0.60 96 1009.4
20260505232744 49 329 0.0 0.0 0.05 0.60 0.60 96 1009.3
20260505232241 49 326 0.0 2.0 0.07 0.59 0.59 96 1009.5
20260505231737 49 6 1.0 2.0 0.07 0.59 0.59 96 1009.6
20260505231237 49 330 0.0 2.0 0.05 0.58 0.58 96 1009.6
20260505230735 49 325 0.0 0.0 0.05 0.58 0.58 96 1009.4
20260505230231 49 326 1.0 4.0 0.00 0.57 0.57 96 1009.3
20260505225727 49 344 2.0 6.0 0.00 0.57 0.57 96 1009.2
20260505225225 49 317 1.0 2.0 0.07 0.57 0.57 96 1009.1
20260505224720 49 18 0.0 0.0 0.07 0.57 0.57 96 1009.1
20260505224218 49 348 2.0 3.0 0.05 0.56 0.56 96 1008.8
20260505223715 49 336 0.0 2.0 0.05 0.56 0.56 96 1008.8
20260505223211 49 338 2.0 3.0 0.07 0.55 0.55 96 1009.0
20260505222707 49 327 1.0 2.0 0.07 0.55 0.55 96 1009.2
20260505222203 49 350 1.0 2.0 0.00 0.54 0.54 96 1009.0
20260505221701 49 342 1.0 3.0 0.00 0.54 0.54 96 1008.9
20260505221157 49 33 1.0 2.0 0.07 0.54 0.54 96 1008.9
20260505220654 50 347 2.0 4.0 0.07 0.54 0.54 96 1008.7
20260505220152 50 17 2.0 2.0 0.00 0.53 0.53 96 1008.6
20260505215650 50 340 2.0 3.0 0.00 0.53 0.53 96 1008.8
20260505215147 50 322 2.0 6.0 0.00 0.53 0.53 96 1008.6
20260505214645 50 293 2.0 7.0 0.00 0.53 0.53 96 1008.7
20260505214142 50 299 2.0 3.0 0.00 0.53 0.53 96 1008.6
20260505213640 50 341 5.0 7.0 0.05 0.53 0.53 95 1008.7
20260505213136 50 291 0.0 2.0 0.05 0.53 0.53 96 1008.8
20260505212632 50 333 0.0 2.0 0.07 0.52 0.52 95 1009.0
20260505212130 51 310 1.0 1.0 0.12 0.52 0.52 95 1008.9
20260505211627 51 308 0.0 1.0 0.12 0.50 0.50 95 1009.0
20260505211124 50 306 2.0 2.0 0.05 0.49 0.49 95 1008.8
20260505210620 50 323 2.0 2.0 0.12 0.48 0.48 95 1008.6
20260505210118 50 341 2.0 3.0 0.17 0.47 0.47 95 1008.6
20260505205615 51 312 3.0 4.0 0.31 0.46 0.46 95 1008.8
20260505205113 51 289 2.0 2.0 0.26 0.44 0.44 95 1008.6
20260505204609 50 286 1.0 2.0 0.19 0.41 0.41 95 1008.9
20260505204107 50 304 2.0 2.0 0.24 0.40 0.40 95 1008.6
20260505203603 50 322 1.0 3.0 0.35 0.38 0.38 94 1008.8
20260505203101 50 346 1.0 2.0 0.31 0.35 0.35 94 1008.8
20260505202556 50 341 4.0 6.0 0.12 0.31 0.31 94 1008.6
20260505202053 51 302 1.0 2.0 0.07 0.29 0.29 94 1008.6
20260505201549 51 301 2.0 3.0 0.07 0.29 0.29 94 1008.6
20260505201047 51 329 2.0 3.0 0.00 0.28 0.28 94 1008.7
20260505200545 51 317 4.0 6.0 0.07 0.28 0.28 94 1008.4
20260505200042 51 298 1.0 3.0 0.07 0.28 0.28 94 1008.5
20260505195538 52 332 4.0 4.0 0.12 0.27 0.27 94 1008.5
20260505195036 52 308 2.0 4.0 0.12 0.27 0.27 94 1008.2
20260505194532 52 43 1.0 2.0 0.05 0.25 0.25 94 1008.9
20260505194027 53 306 1.0 2.0 0.05 0.25 0.25 94 1009.1
20260505193525 53 15 1.0 2.0 0.07 0.24 0.24 94 1008.9
20260505193022 53 310 1.0 1.0 0.05 0.23 0.23 94 1009.1
20260505192521 52 283 0.0 1.0 0.17 0.23 0.23 93 1009.1
20260505192018 52 305 1.0 1.0 0.19 0.22 0.22 93 1009.2
20260505191511 52 298 1.0 2.0 0.12 0.20 0.20 92 1009.4
20260505191009 52 303 1.0 3.0 0.12 0.19 0.19 92 1009.4
20260505190503 52 285 0.0 1.0 0.07 0.18 0.18 91 1009.4
20260505185958 52 293 3.0 3.0 0.07 0.17 0.17 91 1009.3
20260505185456 53 295 1.0 2.0 0.12 0.17 0.17 90 1009.3
20260505184951 53 279 1.0 2.0 0.12 0.16 0.16 90 1008.9
20260505184449 53 300 1.0 2.0 0.12 0.15 0.15 89 1009.2
20260505183945 53 305 0.0 1.0 0.05 0.14 0.14 88 1009.1
20260505183442 53 270 1.0 2.0 0.07 0.13 0.13 88 1009.3
20260505182939 52 315 1.0 2.0 0.07 0.13 0.13 88 1009.0
20260505182437 53 297 2.0 3.0 0.00 0.12 0.12 88 1008.8
20260505181932 53 305 1.0 2.0 0.00 0.12 0.12 88 1008.9
20260505181430 53 318 2.0 2.0 0.00 0.12 0.12 88 1008.9
20260505180927 53 294 1.0 1.0 0.00 0.12 0.12 88 1008.8
20260505180423 53 253 0.0 2.0 0.05 0.12 0.12 88 1008.7
20260505175920 54 350 0.0 1.0 0.07 0.11 0.11 89 1008.7
20260505175416 54 260 1.0 2.0 0.07 0.11 0.11 89 1008.7
20260505174912 54 246 2.0 3.0 0.12 0.10 0.10 89 1008.7
20260505174409 55 190 1.0 2.0 0.17 0.10 0.10 90 1008.5
20260505173901 55 287 1.0 2.0 0.12 0.08 0.08 89 1008.8
20260505173357 55 303 1.0 4.0 0.05 0.06 0.06 89 1008.9
20260505172853 55 290 2.0 3.0 0.12 0.06 0.06 88 1008.6
20260505172352 55 277 3.0 7.0 0.14 0.05 0.05 88 1009.1
20260505171850 56 267 1.0 3.0 0.12 0.04 0.04 87 1008.9
20260505171348 56 290 2.0 3.0 0.12 0.03 0.03 86 1008.8
20260505170845 57 279 2.0 6.0 0.12 0.02 0.02 85 1008.9
20260505170342 58 297 1.0 3.0 0.00 0.00 0.00 84 1008.8
20260505165837 59 282 3.0 9.0 0.00 0.00 0.00 82 1009.1
20260505165332 59 291 6.0 7.0 0.00 0.00 0.00 80 1009.0
20260505164829 59 247 6.0 8.0 0.00 0.00 0.00 78 1009.1
20260505164325 59 303 2.0 9.0 0.00 0.00 0.00 77 1008.9
20260505163823 60 253 3.0 3.0 0.00 0.00 0.00 78 1009.0
20260505163322 60 276 5.0 7.0 0.00 0.00 0.00 78 1009.0
20260505162819 60 222 1.0 4.0 0.00 0.00 0.00 77 1008.9
20260505162315 60 204 3.0 10.0 0.00 0.00 0.00 75 1009.1
20260505161813 60 257 3.0 4.0 0.00 0.00 0.00 75 1008.9
20260505161310 60 293 4.0 6.0 0.00 0.00 0.00 75 1008.9
20260505160807 60 294 3.0 6.0 0.00 0.00 0.00 75 1008.9
20260505160305 60 279 6.0 10.0 0.00 0.00 0.00 75 1008.7
20260505153244 61 322 5.0 7.0 0.00 0.00 0.00 75 1008.7
20260505152741 61 294 4.0 8.0 0.00 0.00 0.00 75 1008.5
20260505152237 61 302 2.0 7.0 0.00 0.00 0.00 75 1008.7
20260505151731 61 296 8.0 11.0 0.00 0.00 0.00 75 1008.7
20260505151229 61 12 4.0 11.0 0.00 0.00 0.00 74 1008.5
20260505150726 61 321 4.0 9.0 0.00 0.00 0.00 74 1008.4
20260505150223 62 339 6.0 17.0 0.00 0.00 0.00 73 1008.6
20260505140651 64 204 4.0 6.0 0.00 0.00 0.00 68 1006.8
20260505140149 64 217 5.0 24.0 0.00 0.00 0.00 68 1006.7
20260505130112 63 300 3.0 6.0 0.00 0.00 0.00 70 1006.6
20260505124602 61 196 5.0 10.0 0.00 0.00 0.00 72 1006.9
20260505124058 61 161 4.0 8.0 0.00 0.00 0.00 74 1006.7
20260505123554 61 153 8.0 11.0 0.00 0.00 0.00 75 1006.9
20260505123051 61 225 4.0 7.0 0.00 0.00 0.00 75 1006.8
20260505122548 60 317 2.0 6.0 0.00 0.00 0.00 76 1006.8
20260505122045 59 241 3.0 10.0 0.00 0.00 0.00 77 1006.8
20260505121541 59 144 4.0 6.0 0.00 0.00 0.00 78 1006.9
20260505121038 59 199 3.0 8.0 0.00 0.00 0.00 77 1006.8
20260505120534 59 315 3.0 8.0 0.00 0.00 0.00 76 1006.7
20260505120030 59 255 2.0 6.0 0.00 0.00 0.00 76 1006.8
20260505115525 59 169 2.0 9.0 0.00 0.00 0.00 75 1006.8
20260505115023 60 322 6.0 9.0 0.00 0.00 0.00 75 1006.7
20260505114520 59 250 4.0 6.0 0.00 0.00 0.00 74 1006.6
20260505114016 59 203 2.0 6.0 0.00 0.00 0.00 74 1006.4
20260505113512 59 230 2.0 8.0 0.00 0.00 0.00 74 1006.1
20260505113009 59 224 5.0 8.0 0.00 0.00 0.00 73 1005.9
20260505112505 59 196 2.0 4.0 0.00 0.00 0.00 74 1005.8
20260505112003 59 225 3.0 3.0 0.00 0.00 0.00 74 1005.6
20260505111501 59 224 2.0 2.0 0.00 0.00 0.00 74 1005.4
20260505110958 60 260 2.0 3.0 0.00 0.00 0.00 73 1005.5
20260505110455 60 341 1.0 2.0 0.00 0.00 0.00 73 1005.0
20260505101921 60 296 1.0 6.0 0.00 0.00 0.00 74 1004.5
20260505101421 60 303 2.0 6.0 0.00 0.00 0.00 74 1004.3
20260505100916 60 226 1.0 4.0 0.00 0.00 0.00 75 1004.3
20260505100413 60 207 2.0 3.0 0.00 0.00 0.00 75 1004.1
20260505095909 60 289 2.0 4.0 0.00 0.00 0.00 76 1004.0
20260505095406 59 240 1.0 6.0 0.00 0.00 0.00 76 1004.3
20260505094903 59 218 2.0 7.0 0.00 0.00 0.00 77 1004.2
20260505094400 59 209 3.0 3.0 0.00 0.00 0.00 78 1004.5
20260505093855 59 158 2.0 2.0 0.00 0.00 0.00 78 1004.4
20260505093353 59 236 1.0 3.0 0.00 0.00 0.00 78 1004.7
20260505092850 59 173 3.0 3.0 0.00 0.00 0.00 78 1004.6
20260505092348 59 200 2.0 4.0 0.00 0.00 0.00 79 1004.9
20260505091845 59 246 3.0 4.0 0.00 0.00 0.00 80 1004.6
20260505091343 59 210 2.0 3.0 0.00 0.00 0.00 80 1004.4
20260505090841 59 319 3.0 3.0 0.00 0.00 0.00 81 1004.6
20260505090339 59 239 3.0 4.0 0.00 0.00 0.00 81 1004.8
20260505085835 59 318 1.0 3.0 0.00 0.00 0.00 80 1004.8
20260505085334 59 192 6.0 9.0 0.00 0.00 0.00 79 1004.5
20260505084831 60 192 6.0 8.0 0.00 0.00 0.00 78 1004.4
20260505084329 59 252 4.0 6.0 0.00 0.00 0.00 78 1004.3
20260505083826 60 220 3.0 7.0 0.00 0.00 0.00 78 1004.2
20260505083324 60 163 4.0 7.0 0.00 0.00 0.00 78 1004.0
20260505082820 60 239 6.0 8.0 0.00 0.00 0.00 76 1004.2
20260505082311 60 279 2.0 7.0 0.00 0.00 0.00 75 1004.2
20260505081808 61 186 7.0 10.0 0.00 0.00 0.00 73 1004.4
20260505081305 62 297 3.0 11.0 0.00 0.00 0.00 72 1004.2
20260505080801 63 285 4.0 9.0 0.00 0.00 0.00 69 1004.5
20260505080257 63 249 2.0 8.0 0.00 0.00 0.00 67 1004.6
20260505075753 63 271 8.0 10.0 0.00 0.00 0.00 67 1004.5
20260505075250 63 268 3.0 9.0 0.00 0.00 0.00 66 1004.5
20260505074747 64 62 2.0 10.0 0.00 0.00 0.00 65 1004.4
20260505074244 64 283 7.0 10.0 0.00 0.00 0.00 65 1004.5
20260505073742 64 315 4.0 16.0 0.00 0.00 0.00 65 1004.4
20260505073239 64 264 3.0 7.0 0.00 0.00 0.00 66 1004.2
20260505072736 64 195 2.0 7.0 0.00 0.00 0.00 66 1004.4
20260505072232 64 332 2.0 4.0 0.00 0.00 0.00 66 1004.2
20260505071727 64 259 0.0 6.0 0.00 0.00 0.00 66 1004.1
20260505071225 64 153 2.0 4.0 0.00 0.00 0.00 66 1004.1
20260505070722 64 225 2.0 4.0 0.00 0.00 0.00 66 1003.9
20260505070219 64 188 2.0 6.0 0.00 0.00 0.00 65 1003.9
20260505065714 64 204 2.0 2.0 0.00 0.00 0.00 65 1004.1
20260505065212 65 340 0.0 2.0 0.00 0.00 0.00 64 1004.3
20260505064709 65 271 4.0 8.0 0.00 0.00 0.00 63 1004.2
20260505064206 66 276 4.0 8.0 0.00 0.00 0.00 62 1004.2
20260505063704 66 91 2.0 4.0 0.00 0.00 0.00 62 1004.2
20260505063200 66 279 3.0 4.0 0.00 0.00 0.00 61 1004.2
20260505062655 67 265 2.0 4.0 0.00 0.00 0.00 60 1004.2
20260505062154 67 308 1.0 3.0 0.00 0.00 0.00 60 1004.2
20260505061650 67 292 2.0 7.0 0.00 0.00 0.00 59 1004.2
20260505061149 68 323 3.0 7.0 0.00 0.00 0.00 58 1004.2
20260505060646 68 301 4.0 4.0 0.00 0.00 0.00 57 1004.0
20260505060142 68 260 2.0 14.0 0.00 0.00 0.00 57 1003.8
20260505055638 68 332 6.0 9.0 0.00 0.00 0.00 57 1004.0
20260505055135 68 321 3.0 6.0 0.00 0.00 0.00 56 1003.9
20260505054632 68 292 4.0 7.0 0.00 0.00 0.00 56 1003.5
20260505054130 68 308 2.0 4.0 0.00 0.00 0.00 57 1003.5
20260505053627 68 152 7.0 10.0 0.00 0.00 0.00 57 1003.3
20260505053123 68 241 3.0 6.0 0.00 0.00 0.00 57 1003.5
20260505052620 68 205 3.0 6.0 0.00 0.00 0.00 57 1003.7
20260505052118 68 339 3.0 7.0 0.00 0.00 0.00 57 1003.3
20260505051615 68 207 3.0 6.0 0.00 0.00 0.00 58 1003.2
20260505051113 68 139 4.0 11.0 0.00 0.00 0.00 57 1003.2
20260505050610 68 217 2.0 4.0 0.00 0.00 0.00 58 1003.0
20260505050109 67 129 1.0 4.0 0.00 0.00 0.00 58 1003.2
20260505041538 68 201 0.0 2.0 0.00 0.00 0.00 58 1003.6
20260505041036 68 179 6.0 18.0 0.00 0.00 0.00 58 1003.7
20260505040533 68 251 2.0 3.0 0.00 0.00 0.00 58 1003.8
20260505040030 68 215 4.0 6.0 0.00 0.00 0.00 58 1003.9
20260505035526 68 171 4.0 8.0 0.00 0.00 0.00 59 1003.8
20260505035023 68 220 4.0 8.0 0.00 0.00 0.00 58 1003.7
20260505034519 68 189 5.0 7.0 0.00 0.00 0.00 58 1003.7
20260505034016 68 205 5.0 8.0 0.00 0.00 0.00 58 1003.9
20260505033513 68 220 4.0 9.0 0.00 0.00 0.00 58 1003.8
20260505033011 68 172 2.0 4.0 0.00 0.00 0.00 58 1003.8
20260505032509 68 181 4.0 10.0 0.00 0.00 0.00 58 1003.9
20260505032005 68 218 3.0 9.0 0.00 0.00 0.00 58 1004.0
20260505031502 68 128 2.0 4.0 0.00 0.00 0.00 59 1004.1
20260505030959 68 210 5.0 8.0 0.00 0.00 0.00 58 1004.2
20260505030455 68 178 2.0 6.0 0.00 0.00 0.00 58 1004.1
20260505025950 68 238 2.0 4.0 0.00 0.00 0.00 58 1004.0
20260505025448 68 264 2.0 8.0 0.00 0.00 0.00 58 1004.1
20260505024947 68 139 3.0 8.0 0.00 0.00 0.00 57 1004.3
20260505024443 68 204 0.0 8.0 0.00 0.00 0.00 58 1004.0
20260505023940 67 183 3.0 4.0 0.00 0.00 0.00 58 1004.0
20260505023437 67 178 1.0 4.0 0.00 0.00 0.00 59 1004.0
20260505022934 67 140 3.0 4.0 0.00 0.00 0.00 59 1003.9
20260505022432 67 91 2.0 3.0 0.00 0.00 0.00 58 1003.9
20260505021929 68 121 1.0 4.0 0.00 0.00 0.00 58 1004.0
20260505021426 68 175 0.0 2.0 0.00 0.00 0.00 58 1003.8
20260505020921 68 131 1.0 4.0 0.00 0.00 0.00 58 1004.0
20260505020417 68 107 1.0 4.0 0.00 0.00 0.00 57 1004.0
20260505015914 68 332 1.0 2.0 0.00 0.00 0.00 58 1004.0
20260505015411 68 177 1.0 3.0 0.00 0.00 0.00 57 1003.7
20260505014908 69 250 5.0 7.0 0.00 0.00 0.00 56 1004.0
20260505014405 69 222 4.0 7.0 0.00 0.00 0.00 56 1004.0
20260505013902 69 185 4.0 11.0 0.00 0.00 0.00 55 1003.9
20260505013358 69 274 3.0 4.0 0.00 0.00 0.00 55 1003.8
20260505012857 69 197 4.0 6.0 0.00 0.00 0.00 54 1004.0
20260505012355 69 158 0.0 6.0 0.00 0.00 0.00 55 1003.9
20260505011851 69 165 1.0 6.0 0.00 0.00 0.00 54 1003.7
20260505011347 70 196 4.0 8.0 0.00 0.00 0.00 53 1003.7
20260505010844 70 260 3.0 4.0 0.00 0.00 0.00 53 1003.9
20260505010339 70 189 6.0 9.0 0.00 0.00 0.00 52 1003.9
20260505005836 70 191 2.0 9.0 0.00 0.00 0.00 51 1003.5
20260505005333 70 77 4.0 8.0 0.00 0.00 0.00 50 1003.5
20260505004831 71 166 0.0 4.0 0.00 0.00 0.00 49 1003.4
20260505004326 71 177 3.0 4.0 0.00 0.00 0.00 49 1003.5
20260505003824 71 216 5.0 8.0 0.00 0.00 0.00 48 1003.3
20260505003321 71 213 4.0 9.0 0.00 0.00 0.00 48 1003.5
20260505002817 72 232 1.0 6.0 0.00 0.00 0.00 47 1003.5
20260505002314 72 238 5.0 15.0 0.00 0.00 0.00 46 1003.5
20260505001813 72 190 4.0 8.0 0.00 0.00 0.00 46 1003.3